Weather History for Hayward, WI

Change the Weather History Date:

Thursday, May 15, 2014

  Actual Average Record
Temperature  
Mean Temperature 38 °F -  
Max Temperature 48 °F 80 °F 88 °F (2001)
Min Temperature 30 °F 51 °F 24 °F (2004)
Degree Days  
Heating Degree Days 27    
Moisture  
Dew Point 27 °F    
Average Humidity 62    
Maximum Humidity 92    
Minimum Humidity 44    
Precipitation  
Precipitation 0.00 in - - ()
Sea Level Pressure  
Sea Level Pressure 30.16 in    
Wind  
Wind Speed 4 mph (NNE)    
Max Wind Speed 14 mph    
Max Gust Speed 21 mph    
Visibility 10 miles    
Events      
Averages and records for this station are not official NWS values.
T = Trace of Precipitation, MM = Missing Value Source: NWS Daily Summary

Daily Weather History Graph

Daily Weather History Graph

Search for Another Location

Airport:

Trip Planner

Search our weather history database for the weather conditions in past years. The results will help you decide how hot, cold, wet, or windy it might be!

Date:

Astronomy

May. 15, 2014 Rise Set
Actual Time 5:33 AM CDT 8:31 PM CDT
Civil Twilight 4:58 AM CDT 9:06 PM CDT
Nautical Twilight 4:13 AM CDT 9:51 PM CDT
Astronomical Twilight 3:19 AM CDT 10:46 PM CDT
Moon 9:39 PM CDT (5/15) 6:21 AM CDT (5/15)
Length of Visible Light 16h 08m
Length of Day
14h 57m
Full, 99% of the Moon is Illuminated
May 15
Full
May 21
Last Quarter
May 28
New
Jun 5
First Quarter
Jun 12
Full

Hourly Weather History & Observations

Time (CDT) Temp. Windchill Dew Point Humidity Pressure Visibility Wind Dir Wind Speed Gust Speed Precip Events Conditions
12:53 AM 37.9 °F - 27.0 °F 65% 30.22 in 10.0 mi Calm Calm - N/A   Partly Cloudy
1:53 AM 35.1 °F - 28.0 °F 76% 30.21 in 10.0 mi Calm Calm - N/A   Partly Cloudy
2:53 AM 34.0 °F - 27.0 °F 75% 30.19 in 10.0 mi Calm Calm - N/A   Overcast
3:53 AM 34.0 °F 31.0 °F 27.0 °F 75% 30.19 in 10.0 mi NNE 3.5 mph - N/A   Overcast
4:53 AM 30.9 °F - 27.0 °F 85% 30.18 in 10.0 mi Calm Calm - N/A   Partly Cloudy
5:53 AM 30.9 °F - 28.0 °F 89% 30.17 in 10.0 mi Calm Calm - N/A   Clear
6:53 AM 32.0 °F - 30.0 °F 92% 30.17 in 10.0 mi Calm Calm - N/A   Clear
7:53 AM 39.0 °F 34.0 °F 30.0 °F 70% 30.17 in 10.0 mi NNE 6.9 mph - N/A   Clear
8:53 AM 42.1 °F 37.7 °F 30.0 °F 62% 30.16 in 10.0 mi NNE 6.9 mph - N/A   Overcast
9:53 AM 44.1 °F 37.4 °F 28.0 °F 53% 30.16 in 10.0 mi NE 13.8 mph 19.6 mph N/A   Overcast
10:53 AM 42.1 °F 36.1 °F 27.0 °F 55% 30.17 in 10.0 mi NE 10.4 mph 20.7 mph N/A   Overcast
11:53 AM 43.0 °F 38.2 °F 27.0 °F 53% 30.16 in 10.0 mi NNE 8.1 mph 18.4 mph N/A   Overcast
12:53 PM 46.0 °F 41.9 °F 25.0 °F 44% 30.15 in 10.0 mi North 8.1 mph - N/A   Overcast
2:53 PM 45.0 °F 40.6 °F 24.1 °F 44% 30.14 in 10.0 mi North 8.1 mph - N/A   Overcast
3:53 PM 46.0 °F 41.9 °F 25.0 °F 44% 30.13 in 10.0 mi NNE 8.1 mph - N/A   Overcast
4:53 PM 46.0 °F 41.4 °F 27.0 °F 47% 30.12 in 10.0 mi NNE 9.2 mph 17.3 mph N/A   Overcast
5:53 PM 45.0 °F 39.7 °F 26.1 °F 48% 30.12 in 10.0 mi NNE 10.4 mph 16.1 mph N/A   Overcast
6:53 PM 44.1 °F 39.0 °F 27.0 °F 51% 30.13 in 10.0 mi NNE 9.2 mph - N/A   Overcast
7:53 PM 43.0 °F 37.7 °F 27.0 °F 53% 30.13 in 10.0 mi NE 9.2 mph - N/A   Overcast
8:53 PM 39.9 °F 37.8 °F 27.0 °F 60% 30.13 in 10.0 mi NNE 3.5 mph - N/A   Overcast
9:53 PM 39.9 °F - 28.0 °F 63% 30.14 in 10.0 mi Calm Calm - N/A   Overcast
10:53 PM 39.0 °F - 28.9 °F 67% 30.13 in 10.0 mi Calm Calm - N/A   Overcast
11:53 PM 39.0 °F - 28.0 °F 65% 30.12 in 10.0 mi Calm Calm - N/A   Overcast